Tracking 19484 objects as of 20-Jan-2019
HD Live streaming from Space Station
objects crossing your sky now

HAIYANG 2B

Track HAIYANG 2B now!
10-day predictions


NORAD ID: 43655
Int'l Code: 2018-081A
Perigee: 973.0 km
Apogee: 973.8 km
Inclination: 99.4 °
Period: 104.4 minutes
Semi major axis: 7344 km
RCS: Unknown
Launch date: October 24, 2018
Source: People's Republic of China (PRC)
Launch site: Taiyaun Space Center, China (TSC)
aabbcc
Your satellite tracking list
Your tracking list is empty




NASA's NSSDC Master Catalog

Two Line Element Set (TLE):
1 43655U 18081A   19020.18532287 -.00000080  00000-0 -34790-4 0  9996
2 43655  99.3501  29.4384 0000522 165.3986 194.7181 13.79327247 12020
Source of the keplerian elements: AFSPC